Погода в Кошлакове

Россия / Белгородская область     50°31′40″N   36°52′07″E
темп.,
°C
ветер,
м/с
пор.,
м/с
влажн.,
%
обл.,
%
осадки,
мм/ч
давл.,
гПа
погр.,
м
14 апреля, ср
ср1400:00+10ю368758 0.0 1021151
03:00+8ю118765 0.0 102111
06:00+9св1183100 0.0 102011
09:00+12всв227096 0.0 1019324
12:00+14с226495 0.3 1017750
15:00+16юз2161100 1.3 1016507
18:00+15ююз246599 1.1 1014233
21:00+11зсз228474 1.7 101533
15 апреля, чт
чт1500:00+11сз0186100 0.3 101413
03:00+9юз359254 0.4 1014121
06:00+8юз358811 0.0 101496
09:00+11ю4571100 0.0 1015550
12:00+14ююв565114 0.0 10141406
15:00+15ю465492 0.3 10131704
18:00+14ююв466396 1.1 10131096
21:00+9ююз248670 2.5 1014167
16 апреля, пт
пт1600:00+8юв23894 0.0 101347
03:00+7ююв36915 0.0 1014138
06:00+6юв36924 0.0 1015157
09:00+9ююв587312 0.0 1016839
12:00+11ю686867 0.1 10161010
15:00+12ю565988 0.3 10161300
18:00+11ю4566100 0.3 1016609
21:00+10юз237885 0.8 1017146
17 апреля, сб
сб1700:00+8юз118493 0.0 101827
03:00+7ю358967 0.1 1018197
06:00+7ююз2389100 0.0 1019189
09:00+8зюз337847 0.0 1020585
12:00+10зюз436884 0.1 10201008
15:00+11юз435897 0.2 10201379
18:00+9св117585 0.1 1019594
21:00+8всв2391100 0.9 1020186
18 апреля, вс
вс1800:00+8всв2393100 4.0 1020157
03:00+8ююв118970 4.7 102037
06:00+6в2491100 0.0 102189
09:00+9всв347899 0.1 1021384
12:00+13в3453100 0.8 10211493
15:00+14св4447100 1.3 10201614
18:00+12св3563100 0.7 1021620
21:00+9св4987100 2.3 1021283